FLOCK 4A-11 (44096 NORAD) Tracking and Keplerian Element Data

This shows tracking and keplerian element data for the satellite.

Feedback or suggestion? Click here.




ElementValue
Catalog44096
NameFLOCK 4A-11
Epoch Orbit22852
Epoch Day127.12161724
Epoch Year2023
RAAN191.6825
Inclination97.2553
Eccentricity0.0004163
Argument of Perigee37.472
Mean Anonmoly322.6824
Mean Motion15.54668642
Decay Rate0.0022819
L11 44096U 19018U 23127.12161724 .00228190 00000+0 33540-2 0 9999
L22 44096 97.2553 191.6825 0004163 37.4720 322.6824 15.54668642228528



Live tracking and technical data element details for FLOCK 4A-11 (NORAD 44096). FLOCK 4A-11 can be tracked NOW for your location showing map with azimuth and elevation plus other details from your city location.







IsCatalogInMostPopularTable: catalog: 44096, numindb: 331
Update: records affected: 1



GetName: 44096 FLOCK 4A-11

Hit Count: updated at: Thu, 22 May 2025 04:02:21 GMT